User: anonymous   Login
Location: Caltech
(34.1382°N, 118.1253°W)
Time: 22:54:46
(UTC-07:00)
Language:

SPOT 1/Viking Rocket - Orbit

View from above orbital plane
View from above orbital plane
View from above satellite
View from above satellite

Ground track
Ground track

The orbit data is extracted from the following two-line orbital elements,

1 16615U 86019C   14298.72748682  .00000441  00000-0  18353-3 0  5269
2 16615 098.7422 350.8178 0011566 008.3973 141.2102 14.31329945501361
Epoch (UTC): 25 October 2014 17:27:34
Eccentricity: 0.0011566
inclination: 98.7422°
perigee height: 779 km
apogee height: 795 km
right ascension of ascending node: 350.8178°
argument of perigee: 8.3973°
revolutions per day: 14.31329945
mean anomaly at epoch: 141.2102°
orbit number at epoch: 50136

The dashed part of the orbit path shows where the satellite is in the earth's shadow,  

DLR